TimeCST,TemperatureF,Dew PointF,Humidity,Sea Level PressureIn,VisibilityMPH,Wind Direction,Wind SpeedMPH,Gust SpeedMPH,PrecipitationIn,Events,Conditions,WindDirDegrees,DateUTC
12:14 AM,33.8,30.2,87,29.81,0.2,SE,5.8,-,N/A,Snow,Light Snow,130,2012-12-03 06:14:00
12:34 AM,33.8,30.2,87,29.81,0.2,SE,5.8,-,N/A,Snow,Light Snow,140,2012-12-03 06:34:00
12:53 AM,33.8,30.2,87,29.80,0.2,East,9.2,19.6,N/A,Snow,Light Snow,100,2012-12-03 06:53:00
1:13 AM,33.8,30.2,87,29.80,0.2,SE,4.6,-,N/A,Snow,Light Snow,130,2012-12-03 07:13:00
1:33 AM,33.8,30.2,87,29.79,0.2,ESE,5.8,-,N/A,Snow,Light Snow,120,2012-12-03 07:33:00
1:54 AM,33.8,30.2,87,29.79,0.5,SSE,5.8,-,N/A,Snow,Light Snow,150,2012-12-03 07:54:00
2:14 AM,33.8,30.2,87,29.79,0.2,SSE,5.8,-,N/A,Snow,Light Snow,150,2012-12-03 08:14:00
2:33 AM,33.8,30.2,87,29.78,0.2,SSE,5.8,-,N/A,Fog,Fog,150,2012-12-03 08:33:00
2:54 AM,33.8,30.2,87,29.78,1.0,SE,6.9,-,N/A,,Overcast,130,2012-12-03 08:54:00
3:13 AM,33.8,30.2,87,29.76,0.2,SE,5.8,-,N/A,Fog,Fog,140,2012-12-03 09:13:00
3:34 AM,33.8,30.2,87,29.74,0.8,SE,8.1,-,N/A,,Overcast,130,2012-12-03 09:34:00
3:54 AM,33.8,30.2,87,29.73,1.8,SE,8.1,-,N/A,,Overcast,140,2012-12-03 09:54:00
4:13 AM,33.8,30.2,87,29.72,4.0,SSE,6.9,-,N/A,,Overcast,150,2012-12-03 10:13:00
4:34 AM,33.8,30.2,87,29.71,3.0,SSE,8.1,-,N/A,,Overcast,160,2012-12-03 10:34:00
4:54 AM,33.8,30.2,87,29.70,2.5,SSE,6.9,-,N/A,,Overcast,160,2012-12-03 10:54:00
5:14 AM,33.8,32.0,93,29.69,1.5,SSE,8.1,-,N/A,,Overcast,160,2012-12-03 11:14:00
5:33 AM,33.8,32.0,93,29.68,1.5,SSE,6.9,-,N/A,,Overcast,160,2012-12-03 11:33:00
5:54 AM,33.8,32.0,93,29.67,1.0,SSE,8.1,-,N/A,,Overcast,150,2012-12-03 11:54:00
6:33 AM,35.6,32.0,87,29.66,3.0,SSE,6.9,-,N/A,,Overcast,150,2012-12-03 12:33:00
6:54 AM,35.6,32.0,87,29.65,4.0,SE,6.9,-,N/A,,Overcast,140,2012-12-03 12:54:00
7:14 AM,33.8,32.0,93,29.65,4.0,SSE,6.9,-,N/A,,Overcast,150,2012-12-03 13:14:00
7:34 AM,35.6,32.0,87,29.64,4.0,SE,5.8,-,N/A,,Overcast,140,2012-12-03 13:34:00
7:53 AM,35.6,33.8,93,29.64,3.0,SSE,5.8,-,N/A,,Overcast,150,2012-12-03 13:53:00
8:14 AM,35.6,33.8,93,29.63,2.0,SSE,8.1,17.3,N/A,,Overcast,150,2012-12-03 14:14:00
8:33 AM,37.4,33.8,87,29.62,1.8,SSE,10.4,19.6,N/A,,Overcast,160,2012-12-03 14:33:00
8:54 AM,37.4,33.8,87,29.61,1.8,SSE,11.5,20.7,N/A,,Overcast,160,2012-12-03 14:54:00
9:14 AM,37.4,33.8,87,29.59,1.0,SSE,8.1,16.1,N/A,,Overcast,150,2012-12-03 15:14:00
9:33 AM,37.4,33.8,87,29.58,0.2,SSE,10.4,16.1,N/A,Fog,Fog,160,2012-12-03 15:33:00
9:54 AM,37.4,33.8,87,29.57,0.2,SSE,9.2,-,N/A,Rain,Rain,150,2012-12-03 15:54:00
10:14 AM,37.4,33.8,87,29.56,0.2,SE,10.4,-,N/A,Rain,Rain,140,2012-12-03 16:14:00
10:34 AM,37.4,33.8,87,29.56,0.2,SE,8.1,-,N/A,,Light Drizzle,130,2012-12-03 16:34:00
10:54 AM,37.4,33.8,87,29.54,0.2,SE,8.1,-,N/A,,Light Drizzle,130,2012-12-03 16:54:00
11:14 AM,37.4,35.6,93,29.53,0.2,ESE,6.9,-,N/A,,Drizzle,120,2012-12-03 17:14:00
11:34 AM,37.4,35.6,93,29.53,0.2,SE,6.9,-,0.01,,Heavy Drizzle,140,2012-12-03 17:34:00
11:53 AM,37.4,35.6,93,29.52,0.2,SSE,6.9,-,0.02,,Drizzle,160,2012-12-03 17:53:00
12:14 PM,37.4,35.6,93,29.51,0.2,SSE,6.9,-,0.01,,Light Drizzle,150,2012-12-03 18:14:00
12:34 PM,39.2,35.6,87,29.50,0.2,SE,5.8,-,0.01,,Drizzle,140,2012-12-03 18:34:00
12:54 PM,39.2,35.6,87,29.48,0.2,SE,5.8,-,0.01,,Drizzle,140,2012-12-03 18:54:00
1:13 PM,39.2,35.6,87,29.47,0.2,SSE,4.6,-,N/A,,Light Drizzle,150,2012-12-03 19:13:00
1:34 PM,39.2,35.6,87,29.46,0.2,SSE,4.6,-,0.01,,Light Drizzle,150,2012-12-03 19:34:00
1:54 PM,39.2,37.4,93,29.45,0.2,SSE,5.8,-,0.01,,Drizzle,160,2012-12-03 19:54:00
2:13 PM,39.2,37.4,93,29.44,0.2,SSE,4.6,-,N/A,,Drizzle,150,2012-12-03 20:13:00
2:33 PM,39.2,37.4,93,29.43,0.2,SSE,4.6,-,0.01,,Drizzle,160,2012-12-03 20:33:00
2:54 PM,39.2,37.4,93,29.43,0.2,South,3.5,-,0.02,,Drizzle,180,2012-12-03 20:54:00
3:14 PM,41.0,37.4,87,29.43,0.2,South,5.8,-,N/A,,Drizzle,170,2012-12-03 21:14:00
3:33 PM,41.0,37.4,87,29.43,0.2,South,4.6,-,0.01,,Heavy Drizzle,190,2012-12-03 21:33:00
3:54 PM,41.0,37.4,87,29.44,0.2,SSW,5.8,-,0.03,,Drizzle,210,2012-12-03 21:54:00
4:14 PM,41.0,37.4,87,29.44,0.8,SSW,5.8,-,N/A,,Light Drizzle,210,2012-12-03 22:14:00
4:34 PM,41.0,37.4,87,29.45,2.5,SW,9.2,16.1,N/A,,Overcast,230,2012-12-03 22:34:00
4:53 PM,41.0,37.4,87,29.44,2.5,SW,5.8,-,N/A,,Overcast,220,2012-12-03 22:53:00
5:14 PM,41.0,37.4,87,29.45,4.0,SW,8.1,-,N/A,,Overcast,230,2012-12-03 23:14:00
5:34 PM,41.0,37.4,87,29.46,5.0,WSW,8.1,-,N/A,,Mostly Cloudy,240,2012-12-03 23:34:00
5:53 PM,41.0,37.4,87,29.47,5.0,SW,9.2,-,N/A,,Overcast,220,2012-12-03 23:53:00
6:14 PM,39.2,37.4,93,29.47,7.0,WSW,11.5,20.7,N/A,,Overcast,240,2012-12-04 00:14:00
6:34 PM,39.2,37.4,93,29.48,10.0,WSW,9.2,21.9,N/A,,Overcast,250,2012-12-04 00:34:00
6:53 PM,37.4,35.6,93,29.50,10.0,WSW,15.0,27.6,N/A,,Overcast,250,2012-12-04 00:53:00
7:14 PM,37.4,33.8,87,29.51,10.0,SW,11.5,23.0,N/A,,Overcast,230,2012-12-04 01:14:00
7:34 PM,35.6,33.8,93,29.51,10.0,WSW,11.5,20.7,N/A,,Mostly Cloudy,240,2012-12-04 01:34:00
7:53 PM,35.6,33.8,93,29.51,10.0,WSW,10.4,21.9,N/A,,Mostly Cloudy,240,2012-12-04 01:53:00
8:13 PM,35.6,33.8,93,29.52,10.0,WSW,16.1,27.6,N/A,,Overcast,240,2012-12-04 02:13:00
8:34 PM,35.6,30.2,81,29.52,10.0,WSW,12.7,25.3,N/A,,Overcast,240,2012-12-04 02:34:00
8:54 PM,35.6,28.4,75,29.52,10.0,WSW,15.0,26.5,N/A,,Overcast,250,2012-12-04 02:54:00
9:14 PM,33.8,26.6,75,29.53,10.0,WSW,12.7,23.0,N/A,,Mostly Cloudy,240,2012-12-04 03:14:00
9:34 PM,33.8,26.6,75,29.53,10.0,WSW,11.5,20.7,N/A,,Mostly Cloudy,240,2012-12-04 03:34:00
9:53 PM,33.8,26.6,75,29.53,10.0,SW,8.1,23.0,N/A,,Mostly Cloudy,230,2012-12-04 03:53:00
10:14 PM,33.8,28.4,81,29.53,10.0,SW,8.1,-,N/A,,Overcast,230,2012-12-04 04:14:00
10:34 PM,33.8,26.6,75,29.53,10.0,SW,13.8,21.9,N/A,,Overcast,220,2012-12-04 04:34:00
10:53 PM,33.8,26.6,75,29.54,10.0,SW,15.0,21.9,N/A,,Overcast,230,2012-12-04 04:53:00
11:14 PM,33.8,24.8,70,29.55,10.0,SW,15.0,25.3,N/A,,Overcast,230,2012-12-04 05:14:00
11:34 PM,33.8,24.8,70,29.55,10.0,SW,11.5,26.5,N/A,,Overcast,230,2012-12-04 05:34:00
11:53 PM,32.0,24.8,75,29.56,10.0,WSW,13.8,19.6,N/A,,Overcast,240,2012-12-04 05:53:00